Regional Weather Roundup
Issued by NWS

Home | Current Version | Previous Version | Graphics & Text | Print | Product List | Glossary On
Versions: 1 2 3 4 5 6 7 8 9 10 11 12 13 14 15 16 17 18 19 20 21 22 23 24 25 26 27 28 29 30 31 32 33 34 35 36 37 38 39 40 41 42 43 44 45 46 47 48 49 50
000
ASUS43 KIND 280509
RWRIN

WEATHER ROUNDUP FOR INDIANA
NATIONAL WEATHER SERVICE INDIANAPOLIS IN
100 AM EDT WED JUN 28 2017

NOTE: "FAIR" INDICATES FEW OR NO CLOUDS BELOW 12,000 FEET WITH NO
SIGNIFICANT WEATHER AND/OR OBSTRUCTIONS TO VISIBILITY.

* - STATION DOES NOT REPORT WEATHER SUCH AS PRECIPITATION OR FOG.

+ - STATION NOT QUALITY CONTROLLED BY THE NATIONAL WEATHER SERVICE.
    USE DATA WITH CAUTION...ESPECIALLY DEWPOINT AND RELATIVE
    HUMIDITY OBSERVATIONS.

INZ001>003-010>013-019-020-280600-
NORTHWEST INDIANA

CITY           SKY/WX    TMP DP  RH WIND       PRES   REMARKS
GARY /AIRPORT/ CLEAR     63  46  53 S3        30.07R
KNOX *+        CLEAR     57  41  54 S6        30.08S
LA PORTE +     PTCLDY    60  47  63 S5        30.09R
MICHIGAN CITY+ PTCLDY    61  45  55 SE3       30.07S
MONTICELLO +   CLEAR     62  48  61 S5        30.09S
RENSSELAER +   CLEAR     59  46  63 S5        30.09S
VALPARAISO     CLEAR     61  50  67 S3        30.08R

$$

LMZ046-743>745-280600-
SOUTHERN LAKE MICHIGAN

STATION/POSITION TIME  TEMP    WIND        PRES    WAVE
                       AIR SEA DIR/SP/G            HT
                 (UTC) (F)     (DEG/KT/KT) (MB)    (FT)
BURNS HARBOR     0440   66     190/  8/ 10 1018.3R
MICHIGAN CITY    0440   64     130/  7/  8   N/A
5NW MICH CITY    0500   65 66  160/ 10/ 12   N/A     1

$$

INZ004-005-014>016-021>024-280600-
NORTH CENTRAL INDIANA

CITY           SKY/WX    TMP DP  RH WIND       PRES   REMARKS
GOSHEN         CLEAR     53  46  77 CALM      30.09S
LOGANSPORT +   CLEAR     55  50  82 S5        30.11S
PERU/GRISSOM   CLEAR     58  51  77 S7        30.09S
ROCHESTER +    CLEAR     63  52  67 S5        30.10S
SOUTH BEND     CLEAR     56  46  69 CALM      30.09R
WARSAW +       CLEAR     52  48  87 CALM      30.10S

$$

INZ006>009-017-018-025>027-280600-
NORTHEAST INDIANA

CITY           SKY/WX    TMP DP  RH WIND       PRES   REMARKS
ANGOLA *+      CLEAR     52  43  71 CALM      30.09S
AUBURN +       CLEAR     54  45  71 CALM      30.10F
FORT WAYNE     PTCLDY    58  51  78 CALM      30.11S
HUNTINGTON +   CLEAR     54  53  95 CALM      30.11R
KENDALLVILLE + CLEAR     53  50  87 CALM      30.10S

$$

INZ028-029-035-036-043>045-051>053-280600-
WEST CENTRAL INDIANA

CITY           SKY/WX    TMP DP  RH WIND       PRES   REMARKS
CRAWFORDSVL +  CLEAR     53  53 100 CALM      30.11S
GREENCASTLE +  CLEAR     54  52  94 CALM      30.12R
LAFAYETTE      CLEAR     55  51  86 CALM      30.09S
TERRE HAUTE    PTCLDY    57  52  83 CALM      30.10S

$$

INZ030>032-037>040-046>048-054>057-064-065-280600-
CENTRAL INDIANA

CITY           SKY/WX    TMP DP  RH WIND       PRES   REMARKS
CP ATTERBURY + CLEAR     52  52 100 CALM      30.13S
FRANKFORT +    CLEAR     57  53  84 CALM      30.12F
GREENWOOD *+   PTCLDY    59  51  74 CALM      30.13S
INDIANAPOLIS   PTCLDY    65  47  52 CALM      30.11S
-EAGLE CREEK   CLEAR     59  54  83 CALM      30.11S
KOKOMO +       CLEAR     59  51  75 S7        30.12S
MARION +       CLOUDY    57  50  77 CALM      30.13R
MT COMFORT *+  CLEAR     57  50  77 SE5       30.13R
SHELBYVILLE    CLEAR     56  50  80 E3        30.12R
ZIONSVILLE +   CLEAR     56  53  92 CALM      30.13S

$$

INZ033-034-041-042-049-050-058-059-280600-
EAST CENTRAL INDIANA

CITY           SKY/WX    TMP DP  RH WIND       PRES   REMARKS
MUNCIE         CLEAR     61  48  62 S5        30.12R
RICHMOND +     CLEAR     52  50  93 S6        30.15R

$$

INZ060-061-067>069-081>083-085>088-280600-
SOUTHWEST INDIANA

CITY           SKY/WX    TMP DP  RH WIND       PRES   REMARKS
EVANSVILLE     PTCLDY    63  54  72 CALM      30.11R
HUNTINGBURG *+ PTCLDY    59  54  83 CALM      30.11F
WASHINGTON +   PTCLDY    57  54  91 CALM      30.11S

$$

INZ062-063-066-070>080-084-089>092-280600-
SOUTH CENTRAL AND SOUTHEAST INDIANA

CITY           SKY/WX    TMP DP  RH WIND       PRES   REMARKS
BEDFORD +      CLEAR     57  52  82 CALM      30.12R
BLOOMINGTON    CLEAR     54  48  80 CALM      30.12R
MADISON *+     CLEAR     55  54  94 CALM      30.15R
NORTH VERNON + CLEAR     57  54  88 CALM      30.14R
SEYMOUR +      CLEAR     57  55  94 CALM      30.12R

$$




USA.gov is the U.S. government's official web portal to all federal, state and local government web resources and services.